When you browse on this site, cookies collect data to enhance your experience and personalize the content and advertising you see.
Visit our Privacy Policy to learn more. By continuing to use the site, you agree to this use of cookies and data.
  • In France
  • List of Countries
  • For 7 days
  • Water Temperature
  • Weather Map
  • Weather Widgets
  • user-avatar
    Login

    Hourly Weather Livingstone

    Today, 26 May, Tuesday

    Time Temperature Precipitation Wind Pressure Humidity
    00:00 +16°C° 0 mm 1 mps 682 mmHg 54%
    01:00 +15°C° 0 mm 1 mps 681 mmHg 57%
    02:00 +15°C° 0 mm 1 mps 681 mmHg 63%
    03:00 +15°C° 0 mm 0 mps 681 mmHg 62%
    04:00 +15°C° 0 mm 0 mps 682 mmHg 60%
    05:00 +16°C° 0 mm 0 mps 682 mmHg 58%
    06:00 +19°C° 0 mm 1 mps 682 mmHg 55%
    07:00 +20°C° 0 mm 1 mps 683 mmHg 51%
    08:00 +21°C° 0 mm 1 mps 683 mmHg 48%
    09:00 +24°C° 0 mm 2 mps 684 mmHg 40%
    10:00 +27°C° 0 mm 2 mps 685 mmHg 32%
    11:00 +30°C° 0 mm 3 mps 685 mmHg 25%
    12:00 +31°C° 0 mm 3 mps 684 mmHg 23%
    13:00 +33°C° 0 mm 3 mps 683 mmHg 21%
    14:00 +34°C° 0 mm 3 mps 683 mmHg 20%
    15:00 +33°C° 0 mm 3 mps 682 mmHg 20%
    16:00 +31°C° 0 mm 2 mps 682 mmHg 20%
    17:00 +31°C° 0 mm 2 mps 682 mmHg 20%
    18:00 +27°C° 0 mm 2 mps 682 mmHg 24%
    19:00 +24°C° 0 mm 1 mps 682 mmHg 28%
    20:00 +21°C° 0 mm 1 mps 682 mmHg 32%
    21:00 +20°C° 0 mm 1 mps 683 mmHg 34%
    22:00 +20°C° 0 mm 1 mps 683 mmHg 36%
    23:00 +19°C° 0 mm 1 mps 683 mmHg 38%

    Tomorrow, 27 May, Wednesday

    Time Temperature Precipitation Wind Pressure Humidity
    00:00 +18°C° 0 mm 1 mps 683 mmHg 39%
    01:00 +16°C° 0 mm 1 mps 683 mmHg 39%
    02:00 +15°C° 0 mm 1 mps 683 mmHg 40%
    03:00 +15°C° 0 mm 1 mps 683 mmHg 41%
    04:00 +14°C° 0 mm 1 mps 683 mmHg 43%
    05:00 +13°C° 0 mm 1 mps 683 mmHg 44%
    06:00 +14°C° 0 mm 2 mps 684 mmHg 41%
    07:00 +15°C° 0 mm 2 mps 684 mmHg 39%
    08:00 +16°C° 0 mm 3 mps 685 mmHg 36%
    09:00 +19°C° 0 mm 3 mps 685 mmHg 31%
    10:00 +22°C° 0 mm 3 mps 686 mmHg 26%
    11:00 +26°C° 0 mm 3 mps 686 mmHg 21%
    12:00 +28°C° 0 mm 2 mps 686 mmHg 19%
    13:00 +30°C° 0 mm 2 mps 685 mmHg 17%
    14:00 +32°C° 0 mm 1 mps 685 mmHg 15%
    15:00 +31°C° 0 mm 1 mps 685 mmHg 16%
    16:00 +30°C° 0 mm 1 mps 685 mmHg 18%
    17:00 +29°C° 0 mm 1 mps 684 mmHg 19%
    18:00 +25°C° 0 mm 1 mps 684 mmHg 23%
    19:00 +22°C° 0 mm 1 mps 684 mmHg 28%
    20:00 +19°C° 0 mm 1 mps 684 mmHg 32%
    21:00 +18°C° 0 mm 1 mps 684 mmHg 33%
    22:00 +16°C° 0 mm 1 mps 684 mmHg 33%
    23:00 +15°C° 0 mm 1 mps 685 mmHg 34%

    Day after tomorrow, 28 May, Thursday

    Time Temperature Precipitation Wind Pressure Humidity
    00:00 +14°C° 0 mm 1 mps 684 mmHg 32%
    01:00 +13°C° 0 mm 1 mps 684 mmHg 31%
    02:00 +13°C° 0 mm 1 mps 684 mmHg 29%
    03:00 +12°C° 0 mm 1 mps 684 mmHg 28%
    04:00 +12°C° 0 mm 1 mps 684 mmHg 26%
    05:00 +11°C° 0 mm 1 mps 684 mmHg 25%
    06:00 +13°C° 0 mm 1 mps 685 mmHg 22%
    07:00 +14°C° 0 mm 1 mps 685 mmHg 20%
    08:00 +15°C° 0 mm 1 mps 686 mmHg 17%
    09:00 +20°C° 0 mm 1 mps 687 mmHg 15%
    10:00 +24°C° 0 mm 1 mps 687 mmHg 13%
    11:00 +28°C° 0 mm 2 mps 688 mmHg 10%
    12:00 +30°C° 0 mm 1 mps 687 mmHg 11%
    13:00 +32°C° 0 mm 1 mps 687 mmHg 11%
    14:00 +33°C° 0 mm 1 mps 686 mmHg 11%
    15:00 +32°C° 0 mm 1 mps 686 mmHg 12%
    16:00 +30°C° 0 mm 1 mps 685 mmHg 13%
    17:00 +28°C° 0 mm 1 mps 685 mmHg 15%
    18:00 +25°C° 0 mm 1 mps 684 mmHg 18%
    19:00 +22°C° 0 mm 1 mps 684 mmHg 21%
    20:00 +16°C° 0 mm 0 mps 684 mmHg 24%
    21:00 +18°C° 0 mm 1 mps 684 mmHg 26%
    22:00 +16°C° 0 mm 1 mps 684 mmHg 28%
    23:00 +15°C° 0 mm 1 mps 684 mmHg 30%

    29 May, Friday

    Time Temperature Precipitation Wind Pressure Humidity
    00:00 +14°C° 0 mm 1 mps 684 mmHg 30%
    01:00 +14°C° 0 mm 1 mps 684 mmHg 30%
    02:00 +13°C° 0 mm 1 mps 683 mmHg 30%
    03:00 +12°C° 0 mm 1 mps 683 mmHg 29%
    04:00 +12°C° 0 mm 1 mps 683 mmHg 28%
    05:00 +11°C° 0 mm 1 mps 684 mmHg 28%
    06:00 +13°C° 0 mm 1 mps 684 mmHg 25%
    07:00 +15°C° 0 mm 1 mps 685 mmHg 23%
    08:00 +16°C° 0 mm 1 mps 686 mmHg 21%
    09:00 +21°C° 0 mm 1 mps 686 mmHg 20%
    10:00 +25°C° 0 mm 1 mps 687 mmHg 18%
    11:00 +30°C° 0 mm 1 mps 687 mmHg 17%
    12:00 +31°C° 0 mm 1 mps 687 mmHg 15%
    13:00 +33°C° 0 mm 1 mps 686 mmHg 13%
    14:00 +33°C° 0 mm 0 mps 686 mmHg 11%
    15:00 +33°C° 0 mm 1 mps 685 mmHg 11%
    16:00 +31°C° 0 mm 1 mps 685 mmHg 12%
    17:00 +30°C° 0 mm 2 mps 684 mmHg 13%
    18:00 +26°C° 0 mm 1 mps 684 mmHg 17%
    19:00 +23°C° 0 mm 1 mps 684 mmHg 20%
    20:00 +19°C° 0 mm 1 mps 684 mmHg 24%
    21:00 +18°C° 0 mm 1 mps 684 mmHg 30%
    22:00 +16°C° 0 mm 1 mps 684 mmHg 35%
    23:00 +15°C° 0 mm 1 mps 684 mmHg 41%

    30 May, Saturday

    Time Temperature Precipitation Wind Pressure Humidity
    00:00 +14°C° 0 mm 1 mps 684 mmHg 40%
    01:00 +14°C° 0 mm 1 mps 683 mmHg 40%
    02:00 +13°C° 0 mm 1 mps 683 mmHg 40%
    03:00 +13°C° 0 mm 1 mps 683 mmHg 36%
    04:00 +12°C° 0 mm 1 mps 683 mmHg 32%
    05:00 +12°C° 0 mm 1 mps 683 mmHg 28%
    06:00 +13°C° 0 mm 1 mps 684 mmHg 25%
    07:00 +15°C° 0 mm 1 mps 685 mmHg 23%
    08:00 +16°C° 0 mm 1 mps 686 mmHg 20%
    09:00 +21°C° 0 mm 1 mps 686 mmHg 17%
    10:00 +25°C° 0 mm 2 mps 687 mmHg 14%
    11:00 +29°C° 0 mm 2 mps 687 mmHg 11%
    12:00 +30°C° 0 mm 2 mps 687 mmHg 10%
    13:00 +31°C° 0 mm 2 mps 686 mmHg 10%
    14:00 +32°C° 0 mm 2 mps 686 mmHg 9%
    15:00 +31°C° 0 mm 2 mps 686 mmHg 11%
    16:00 +30°C° 0 mm 2 mps 685 mmHg 12%
    17:00 +29°C° 0 mm 2 mps 685 mmHg 14%
    18:00 +26°C° 0 mm 2 mps 685 mmHg 20%
    19:00 +23°C° 0 mm 2 mps 685 mmHg 26%
    20:00 +19°C° 0 mm 2 mps 685 mmHg 32%
    21:00 +19°C° 0 mm 1 mps 685 mmHg 36%
    22:00 +18°C° 0 mm 1 mps 685 mmHg 40%
    23:00 +18°C° 0 mm 1 mps 685 mmHg 44%

    31 May, Sunday

    Time Temperature Precipitation Wind Pressure Humidity
    00:00 +16°C° 0 mm 1 mps 685 mmHg 45%
    01:00 +16°C° 0 mm 1 mps 685 mmHg 45%
    02:00 +16°C° 0 mm 2 mps 685 mmHg 46%
    03:00 +15°C° 0 mm 1 mps 685 mmHg 50%
    04:00 +14°C° 0 mm 1 mps 685 mmHg 54%
    05:00 +13°C° 0 mm 1 mps 685 mmHg 57%
    06:00 +15°C° 0 mm 1 mps 685 mmHg 54%
    07:00 +16°C° 0 mm 1 mps 686 mmHg 51%
    08:00 +17°C° 0 mm 2 mps 687 mmHg 49%
    09:00 +20°C° 0 mm 2 mps 687 mmHg 43%
    10:00 +25°C° 0 mm 3 mps 687 mmHg 37%
    11:00 +28°C° 0 mm 3 mps 688 mmHg 31%
    12:00 +29°C° 0 mm 3 mps 688 mmHg 29%
    13:00 +31°C° 0 mm 3 mps 687 mmHg 27%
    14:00 +33°C° 0 mm 3 mps 687 mmHg 25%
    15:00 +31°C° 0 mm 3 mps 686 mmHg 27%
    16:00 +30°C° 0 mm 3 mps 686 mmHg 29%
    17:00 +30°C° 0 mm 4 mps 686 mmHg 31%
    18:00 +27°C° 0 mm 3 mps 686 mmHg 40%
    19:00 +24°C° 0 mm 3 mps 686 mmHg 50%
    20:00 +21°C° 0 mm 2 mps 686 mmHg 59%
    21:00 +20°C° 0 mm 2 mps 686 mmHg 62%
    22:00 +19°C° 0 mm 2 mps 686 mmHg 64%
    23:00 +19°C° 0 mm 1 mps 686 mmHg 67%
    Show more